{"data":{"norad_id":69149,"epoch":"2026-09-19T18:42:41.927616Z","epoch_age_seconds":85342,"freshness":"FRESH","line1":"1 69149U 26111B   26262.77965194  .00018577  00000+0  55956-3 0  9996","line2":"2 69149  53.1600  69.4281 0000757 207.0196 153.0767 15.34401499 18783","mean_motion":15.34401499,"eccentricity":7.57e-5,"inclination_deg":53.16,"raan_deg":69.4281,"arg_perigee_deg":207.0196,"mean_anomaly_deg":153.0767,"bstar":0.00055956,"rev_number":1878,"period_min":93.847666398819,"perigee_km":462.18093359792,"apogee_km":463.21663613575,"semimajor_km":6840.8357848668,"source":"CELESTRAK","updated_at":"2026-09-20T09:00:44.089380Z"}}